Weather History for Auburn, IN

Change the Weather History Date:

Sunday, February 12, 2012

  Actual Average (KFWA) Record (KFWA)
Temperature  
Mean Temperature 24 °F 27 °F  
Max Temperature 30 °F 35 °F 58 °F (1984)
Min Temperature 17 °F 20 °F -15 °F (2014)
Degree Days  
Heating Degree Days 42 38  
Month to date heating degree days 464  
Since 1 July heating degree days 4035  
Cooling Degree Days 0 0  
Month to date cooling degree days 0  
Year to date cooling degree days 0  
Moisture  
Dew Point 15 °F    
Average Humidity 69    
Maximum Humidity 80    
Minimum Humidity 55    
Precipitation  
Precipitation 0.00 in 0.08 in 0.74 in (1918)
Month to date precipitation 0.85  
Year to date precipitation 3.11  
Snow  
Snow 0.00 in 0.30 in 4.70 in (1971)
Month to date snowfall 3.7  
Since 1 July snowfall 24.4  
Snow Depth -    
Sea Level Pressure  
Sea Level Pressure 30.21 in    
Wind  
Wind Speed 10 mph (West)    
Max Wind Speed 20 mph    
Max Gust Speed 26 mph    
Visibility 10 miles    
Events      
T = Trace of Precipitation, MM = Missing Value Source: NWS Daily Summary

Daily Weather History Graph

Daily Weather History Graph

Search for Another Location

Airport:

Trip Planner

Search our weather history database for the weather conditions in past years. The results will help you decide how hot, cold, wet, or windy it might be!

Date:

Astronomy

Feb. 12, 2012 Rise Set
Actual Time 7:39 AM EST 6:09 PM EST
Civil Twilight 7:11 AM EST 6:38 PM EST
Nautical Twilight 6:38 AM EST 7:10 PM EST
Astronomical Twilight 6:06 AM EST 7:43 PM EST
Moon No Moon Rise 9:53 AM EST (2/12)
Length of Visible Light 11h 27m
Length of Day
10h 30m
Waning Gibbous, 72% of the Moon is Illuminated
Feb 12
Waning Gibbous
Feb 14
Last Quarter
Feb 21
New
Feb 29
First Quarter
Mar 8
Full

Hourly Weather History & Observations

Time (EST) Temp. Windchill Dew Point Humidity Pressure Visibility Wind Dir Wind Speed Gust Speed Precip Events Conditions
12:15 AM 17.6 °F 8.2 °F 10.4 °F 73% 30.23 in 10.0 mi West 6.9 mph - N/A   Overcast
12:35 AM 17.6 °F 8.2 °F 10.4 °F 73% 30.23 in 10.0 mi West 6.9 mph - N/A   Overcast
12:55 AM 17.6 °F 9.3 °F 10.4 °F 73% 30.23 in 10.0 mi West 5.8 mph - N/A   Overcast
1:15 AM 17.6 °F 8.2 °F 10.4 °F 73% 30.23 in 10.0 mi WSW 6.9 mph - N/A   Mostly Cloudy
1:35 AM 17.6 °F 8.2 °F 10.4 °F 73% 30.22 in 10.0 mi WSW 6.9 mph - N/A   Overcast
1:55 AM 17.6 °F 8.2 °F 10.4 °F 73% 30.22 in 10.0 mi WSW 6.9 mph - N/A   Overcast
2:15 AM 17.6 °F 9.3 °F 8.6 °F 68% 30.23 in 10.0 mi WSW 5.8 mph - N/A   Overcast
2:35 AM 17.6 °F 8.2 °F 10.4 °F 73% 30.22 in 10.0 mi WSW 6.9 mph - N/A   Overcast
2:55 AM 19.4 °F 8.6 °F 12.2 °F 74% 30.21 in 10.0 mi WSW 9.2 mph 16.1 mph N/A   Overcast
3:15 AM 19.4 °F 7.9 °F 12.2 °F 74% 30.21 in 10.0 mi West 10.4 mph 17.3 mph N/A   Overcast
3:35 AM 19.4 °F 6.0 °F 12.2 °F 74% 30.21 in 10.0 mi West 13.8 mph - N/A   Overcast
3:55 AM 19.4 °F 7.9 °F 12.2 °F 74% 30.20 in 10.0 mi West 10.4 mph - N/A   Overcast
4:15 AM 19.4 °F 8.6 °F 12.2 °F 74% 30.20 in 10.0 mi West 9.2 mph - N/A   Overcast
4:35 AM 19.4 °F 9.5 °F 12.2 °F 74% 30.20 in 10.0 mi West 8.1 mph - N/A   Overcast
4:55 AM 19.4 °F 8.6 °F 12.2 °F 74% 30.20 in 10.0 mi WSW 9.2 mph 16.1 mph N/A   Overcast
5:15 AM 19.4 °F 7.9 °F 14.0 °F 80% 30.20 in 10.0 mi WSW 10.4 mph - N/A   Overcast
5:35 AM 19.4 °F 7.9 °F 12.2 °F 74% 30.19 in 10.0 mi WSW 10.4 mph 16.1 mph N/A   Overcast
5:55 AM 19.4 °F 8.6 °F 12.2 °F 74% 30.19 in 10.0 mi WSW 9.2 mph - N/A   Overcast
6:15 AM 19.4 °F 7.2 °F 12.2 °F 74% 30.19 in 10.0 mi West 11.5 mph 17.3 mph N/A   Overcast
6:35 AM 21.2 °F 10.1 °F 14.0 °F 74% 30.19 in 10.0 mi West 10.4 mph - N/A   Overcast
6:55 AM 19.4 °F 8.6 °F 12.2 °F 74% 30.20 in 10.0 mi West 9.2 mph - N/A   Overcast
7:15 AM 19.4 °F 7.9 °F 12.2 °F 74% 30.20 in 10.0 mi WSW 10.4 mph 17.3 mph N/A   Overcast
7:35 AM 19.4 °F 7.9 °F 14.0 °F 80% 30.20 in 10.0 mi West 10.4 mph 17.3 mph N/A   Overcast
7:55 AM 21.2 °F 9.5 °F 14.0 °F 74% 30.20 in 10.0 mi West 11.5 mph 17.3 mph N/A   Overcast
8:15 AM 21.2 °F 8.9 °F 14.0 °F 74% 30.21 in 10.0 mi West 12.7 mph - N/A   Overcast
8:35 AM 21.2 °F 10.1 °F 14.0 °F 74% 30.21 in 10.0 mi West 10.4 mph - N/A   Overcast
8:55 AM 21.2 °F 9.5 °F 14.0 °F 74% 30.22 in 10.0 mi WSW 11.5 mph - N/A   Overcast
9:15 AM 21.2 °F 10.1 °F 14.0 °F 74% 30.23 in 10.0 mi WSW 10.4 mph - N/A   Overcast
9:35 AM 21.2 °F 10.9 °F 14.0 °F 74% 30.23 in 10.0 mi WSW 9.2 mph - N/A   Overcast
9:55 AM 21.2 °F 10.1 °F 12.2 °F 68% 30.24 in 10.0 mi WSW 10.4 mph - N/A   Overcast
10:15 AM 21.2 °F 10.9 °F 14.0 °F 74% 30.24 in 10.0 mi West 9.2 mph - N/A   Overcast
10:35 AM 23.0 °F 11.7 °F 15.8 °F 74% 30.23 in 10.0 mi West 11.5 mph 16.1 mph N/A   Overcast
10:55 AM 24.8 °F 12.4 °F 15.8 °F 69% 30.24 in 10.0 mi West 15.0 mph 21.9 mph N/A   Overcast
11:15 AM 24.8 °F 12.9 °F 17.6 °F 74% 30.23 in 10.0 mi West 13.8 mph 19.6 mph N/A   Overcast
11:35 AM 26.6 °F 13.1 °F 17.6 °F 69% 30.23 in 10.0 mi West 19.6 mph - N/A   Mostly Cloudy
11:55 AM 26.6 °F 14.3 °F 17.6 °F 69% 30.23 in 10.0 mi West 16.1 mph 26.5 mph N/A   Scattered Clouds
12:15 PM 26.6 °F 13.1 °F 17.6 °F 69% 30.23 in 10.0 mi West 19.6 mph 25.3 mph N/A   Scattered Clouds
12:35 PM 28.4 °F 15.8 °F 17.6 °F 64% 30.22 in 10.0 mi West 18.4 mph 24.2 mph N/A   Scattered Clouds
12:55 PM 28.4 °F 16.6 °F 17.6 °F 64% 30.21 in 10.0 mi West 16.1 mph 20.7 mph N/A   Scattered Clouds
1:15 PM 28.4 °F 16.2 °F 19.4 °F 69% 30.21 in 10.0 mi West 17.3 mph 21.9 mph N/A   Scattered Clouds
1:35 PM 28.4 °F 17.5 °F 19.4 °F 69% 30.21 in 10.0 mi West 13.8 mph 19.6 mph N/A   Scattered Clouds
1:55 PM 28.4 °F 17.0 °F 19.4 °F 69% 30.20 in 10.0 mi West 15.0 mph 24.2 mph N/A   Clear
2:15 PM 30.2 °F 19.3 °F 19.4 °F 64% 30.20 in 10.0 mi West 15.0 mph 20.7 mph N/A   Clear
2:35 PM 30.2 °F 18.9 °F 19.4 °F 64% 30.20 in 10.0 mi West 16.1 mph 21.9 mph N/A   Clear
2:55 PM 30.2 °F 20.8 °F 19.4 °F 64% 30.20 in 10.0 mi West 11.5 mph 19.6 mph N/A   Clear
3:15 PM 30.2 °F 19.8 °F 19.4 °F 64% 30.20 in 10.0 mi West 13.8 mph 17.3 mph N/A   Clear
3:35 PM 30.2 °F 18.9 °F 19.4 °F 64% 30.20 in 10.0 mi West 16.1 mph 23.0 mph N/A   Clear
3:55 PM 30.2 °F 18.5 °F 19.4 °F 64% 30.20 in 10.0 mi West 17.3 mph 25.3 mph N/A   Clear
4:15 PM 30.2 °F 19.3 °F 19.4 °F 64% 30.20 in 10.0 mi West 15.0 mph 24.2 mph N/A   Clear
4:35 PM 30.2 °F 18.1 °F 19.4 °F 64% 30.20 in 10.0 mi West 18.4 mph 23.0 mph N/A   Clear
4:55 PM 30.2 °F 18.9 °F 17.6 °F 60% 30.20 in 10.0 mi West 16.1 mph - N/A   Clear
5:15 PM 30.2 °F 19.3 °F 17.6 °F 60% 30.20 in 10.0 mi West 15.0 mph 21.9 mph N/A   Clear
5:35 PM 28.4 °F 17.5 °F 17.6 °F 64% 30.20 in 10.0 mi West 13.8 mph 19.6 mph N/A   Clear
5:55 PM 28.4 °F 18.0 °F 15.8 °F 59% 30.20 in 10.0 mi West 12.7 mph - N/A   Clear
6:15 PM 28.4 °F 19.7 °F 14.0 °F 55% 30.20 in 10.0 mi West 9.2 mph - N/A   Clear
6:35 PM 28.4 °F 21.2 °F 14.0 °F 55% 30.20 in 10.0 mi WSW 6.9 mph - N/A   Clear
6:55 PM 26.6 °F 18.2 °F 14.0 °F 59% 30.20 in 10.0 mi WSW 8.1 mph - N/A   Clear
7:15 PM 26.6 °F 19.1 °F 14.0 °F 59% 30.20 in 10.0 mi WSW 6.9 mph - N/A   Clear
7:35 PM 26.6 °F 19.1 °F 14.0 °F 59% 30.21 in 10.0 mi WSW 6.9 mph - N/A   Clear
7:55 PM 26.6 °F 18.2 °F 12.2 °F 55% 30.21 in 10.0 mi WSW 8.1 mph - N/A   Clear
8:15 PM 26.6 °F 17.5 °F 14.0 °F 59% 30.21 in 10.0 mi WSW 9.2 mph - N/A   Clear
8:35 PM 26.6 °F 16.8 °F 14.0 °F 59% 30.21 in 10.0 mi WSW 10.4 mph - N/A   Clear
8:55 PM 26.6 °F 17.5 °F 14.0 °F 59% 30.21 in 10.0 mi WSW 9.2 mph - N/A   Clear
9:15 PM 26.6 °F 19.1 °F 14.0 °F 59% 30.20 in 10.0 mi WSW 6.9 mph - N/A   Clear
9:35 PM 26.6 °F 19.1 °F 14.0 °F 59% 30.20 in 10.0 mi WSW 6.9 mph - N/A   Clear
9:55 PM 26.6 °F 18.2 °F 15.8 °F 64% 30.20 in 10.0 mi WSW 8.1 mph - N/A   Clear
10:15 PM 26.6 °F 18.2 °F 15.8 °F 64% 30.20 in 10.0 mi WSW 8.1 mph - N/A   Clear
10:35 PM 26.6 °F 18.2 °F 17.6 °F 69% 30.20 in 10.0 mi WSW 8.1 mph - N/A   Clear
10:55 PM 26.6 °F 18.2 °F 17.6 °F 69% 30.19 in 10.0 mi WSW 8.1 mph - N/A   Clear
11:15 PM 26.6 °F 17.5 °F 17.6 °F 69% 30.19 in 10.0 mi WSW 9.2 mph - N/A   Clear
11:35 PM 26.6 °F 18.2 °F 17.6 °F 69% 30.19 in 10.0 mi WSW 8.1 mph - N/A   Clear
11:55 PM 26.6 °F 18.2 °F 17.6 °F 69% 30.18 in 10.0 mi WSW 8.1 mph - N/A   Clear